Torna al catalogo

CZ-3B DEB

AttivoHEO
NORAD 39337·DEBRIS·🇨🇳 China

Lanciato Sep 4, 2010 da Xichang Satellite Launch Center

Loading…

Prossimi Passaggi (prossime 24 ore)

TLE

AggiornatoSource: Space-Track

Epoca: Sep 11, 2026, 10:29 UTC

1 39337U 10042J   26254.43719554 -.00000358  00000-0 -51254-2 0  9996
2 39337  24.7905  89.3607 7526876 337.1709   2.1193  1.84284302 84299

Traccia CZ-3B DEB in tempo reale con AllMySat

Download on the App Store